Regional Weather Roundup
Issued by NWS Little Rock, AR

Home | Current Version | Previous Version | Text Only | Print | Product List | Glossary Off
Versions: 1 2 3 4 5 6 7 8 9 10 11 12 13 14 15 16 17 18 19 20 21 22 23 24 25 26 27 28 29 30 31 32 33 34 35 36 37 38 39 40 41 42 43 44 45 46 47 48 49 50

000
ASUS44 KLZK 270105
RWRLZK

WEATHER ROUNDUP FOR ARKANSAS
NATIONAL WEATHER SERVICE LITTLE ROCK AR
800 PM CDT THU MAR 26 2015

NOTE: "FAIR" INDICATES FEW OR NO CLOUDS BELOW 12,000 FEET WITH NO
SIGNIFICANT WEATHER AND/OR OBSTRUCTIONS TO VISIBILITY.

ARZ001-003-010-029-270200-
NORTHWEST ARKANSAS

CITY           SKY/WX    TMP DP  RH WIND       PRES   REMARKS
FAYETTEVILLE   CLEAR     46  30  53 NW6       30.09R
FORT SMITH     CLEAR     54  29  38 N8        30.10R
HARRISON       CLEAR     46  29  51 NW7       30.07R
BENTONVILLE    CLEAR     48  28  46 N5        30.09S
ROGERS         CLEAR     48  28  46 N3        30.10R
SILOAM SPGS    CLEAR     45  28  53 NW6       30.12R
HIGHFILL       CLEAR     47  30  51 NW5       30.09R
SPRINGDALE     CLEAR     48  28  46 N12       30.11R
$$

ARZ004-005-016-270200-
NORTH CENTRAL ARKANSAS

CITY           SKY/WX    TMP DP  RH WIND       PRES   REMARKS
BATESVILLE     CLEAR     50  30  46 NW3       30.05S
FLIPPIN        CLEAR     48  27  43 NW5       30.07R
MTN HOME       CLEAR     48  27  44 NW3       30.06R
$$

ARZ040-041-270200-
WEST CENTRAL ARKANSAS

CITY           SKY/WX    TMP DP  RH WIND       PRES   REMARKS
MENA           CLEAR     54  32  43 NW5       30.08R
MOUNT IDA      CLEAR     52  37  56 CALM      30.04R
$$

ARZ009-017-025-026-028-270200-
NORTHEAST ARKANSAS

CITY           SKY/WX    TMP DP  RH WIND       PRES   REMARKS
CORNING          N/A     48  37  66 N3        30.05S
JONESBORO      CLEAR     43  37  79 NE3       30.05R
NEWPORT        CLEAR     48  42  80 NE7       30.06R
BLYTHEVILLE    CLEAR     42  38  85 N7        30.06R
$$

ARZ022-023-033-042-044-270200-
CENTRAL ARKANSAS

CITY           SKY/WX    TMP DP  RH WIND       PRES   REMARKS
LITTLE ROCK    PTCLDY    53  36  52 N3        30.05R
N LITTLE ROCK  PTCLDY    51  40  65 N5        30.05R
SEARCY         CLEAR     51  35  54 N3        30.07R
HOT SPRINGS    CLEAR     55  37  50 CALM      30.05R
RUSSELLVILLE   CLEAR     54  31  41 N5        30.06R
CLINTON        FAIR      48  37  66 CALM      30.08R
$$

ARZ036-270200-
EAST ARKANSAS

CITY           SKY/WX    TMP DP  RH WIND       PRES   REMARKS
WEST MEMPHIS   PTCLDY    45  39  79 N9        30.03S
$$

ARZ050-053-066-070-073-270200-
SOUTHWEST ARKANSAS

CITY           SKY/WX    TMP DP  RH WIND       PRES   REMARKS
ARKADELPHIA    FAIR      55  45  69 NW3       30.06R
CAMDEN         CLEAR     50  43  76 CALM      30.06R
TEXARKANA      CLEAR     56  38  50 N6        30.05R
EL DORADO      CLEAR     49  44  83 CALM      30.05R
$$

ARZ056-057-069-270200-
SOUTHEAST ARKANSAS

CITY           SKY/WX    TMP DP  RH WIND       PRES   REMARKS
PINE BLUFF     CLEAR     49  41  74 N6        30.05R
STUTTGART      CLEAR     48  39  71 N8        30.05R
MONTICELLO     CLOUDY    51  44  77 N5        30.04R

$$




USA.gov is the U.S. government's official web portal to all federal, state and local government web resources and services.